Change the Weather History Date:

Friday, June 27, 2014

  Actual Average Record
Temperature  
Mean Temperature 66 °F -  
Max Temperature 75 °F 83 °F 102 °F (1992)
Min Temperature 57 °F 57 °F 46 °F (2012)
Cooling Degree Days 1    
Growing Degree Days 16 (Base 50)    
Moisture  
Dew Point 53 °F    
Average Humidity 62    
Maximum Humidity 90    
Minimum Humidity 42    
Precipitation  
Precipitation 0.12 in - - ()
Sea Level Pressure  
Sea Level Pressure 29.80 in    
Wind  
Wind Speed 14 mph (South)    
Max Wind Speed 21 mph    
Max Gust Speed 25 mph    
Visibility 10 miles    
Events Rain , Thunderstorm    
Averages and records for this station are not official NWS values.
T = Trace of Precipitation, MM = Missing Value Source: NWS Daily Summary

Daily Weather History Graph

Daily Weather History Graph

Search for Another Location

Airport or City:

Trip Planner

Search our weather history database for the weather conditions in past years. The results will help you decide how hot, cold, wet, or windy it might be!

Date:

Astronomy

Jun. 27, 2014 Rise Set
Actual Time 5:03 AM PDT 8:48 PM PDT
Civil Twilight 4:25 AM PDT 9:27 PM PDT
Nautical Twilight 3:33 AM PDT 10:18 PM PDT
Astronomical Twilight 2:20 AM PDT 11:31 PM PDT
Moon 5:44 AM PDT (6/27) 8:50 PM PDT (6/27)
Length of Visible Light 17h 01m
Length of Day
15h 44m
New Moon, 0% of the Moon is Illuminated
Jun 27
New Moon
Jul 5
First Quarter
Jul 12
Full
Jul 18
Last Quarter
Jul 26
New

Hourly Weather History & Observations

Time (PDT) Temp. Dew Point Humidity Pressure Visibility Wind Dir Wind Speed Gust Speed Precip Events Conditions
12:53 AM 64.9 °F 51.1 °F 61% 29.79 in 10.0 mi South 17.3 mph 25.3 mph N/A   Overcast
1:53 AM 64.0 °F 51.1 °F 63% 29.79 in 10.0 mi South 19.6 mph - N/A   Overcast
2:53 AM 64.0 °F 51.1 °F 63% 29.79 in 10.0 mi South 15.0 mph - N/A   Mostly Cloudy
3:53 AM 64.0 °F 51.1 °F 63% 29.78 in 10.0 mi South 15.0 mph - N/A   Overcast
4:53 AM 61.0 °F 52.0 °F 72% 29.81 in 10.0 mi South 17.3 mph - 0.00 in Rain Light Rain
5:53 AM 60.1 °F 54.0 °F 80% 29.83 in 10.0 mi SSW 8.1 mph - 0.01 in Rain Light Rain
6:53 AM 57.9 °F 55.0 °F 90% 29.85 in 10.0 mi South 8.1 mph - 0.05 in Rain Light Rain
7:53 AM 59.0 °F 55.0 °F 87% 29.83 in 10.0 mi SSE 8.1 mph - 0.03 in Rain Light Rain
8:53 AM 61.0 °F 55.0 °F 81% 29.81 in 10.0 mi SE 8.1 mph - 0.00 in   Overcast
9:53 AM 64.0 °F 54.0 °F 70% 29.81 in 10.0 mi Calm Calm - N/A   Overcast
11:53 AM 71.1 °F 53.1 °F 53% 29.80 in 10.0 mi SSW 10.4 mph - N/A   Overcast
12:53 PM 71.1 °F 53.1 °F 53% 29.80 in 10.0 mi SSW 9.2 mph - 0.00 in Rain Light Rain
1:53 PM 75.0 °F 52.0 °F 44% 29.78 in 10.0 mi WSW 12.7 mph 17.3 mph 0.00 in   Mostly Cloudy
2:53 PM 75.9 °F 51.1 °F 42% 29.78 in 10.0 mi SW 9.2 mph - N/A   Mostly Cloudy
3:34 PM 70.0 °F 55.9 °F 61% 29.80 in 10.0 mi South 15.0 mph - N/A   Scattered Clouds
3:53 PM 73.9 °F 54.0 °F 50% 29.78 in 10.0 mi South 15.0 mph - N/A   Clear
4:27 PM 72.0 °F 50.0 °F 46% 29.80 in 10.0 mi South 20.7 mph - N/A Thunderstorm Mostly Cloudy
4:35 PM 71.1 °F 50.0 °F 47% 29.81 in 10.0 mi South 19.6 mph - 0.00 in Rain , Thunderstorm Light Thunderstorms and Rain
4:53 PM 64.0 °F 57.0 °F 78% 29.82 in 6.0 mi South 16.1 mph - 0.01 in Rain , Thunderstorm Light Thunderstorms and Rain
5:04 PM 63.0 °F 57.0 °F 81% 29.81 in 5.0 mi SSE 17.3 mph - 0.02 in   Haze
5:12 PM 64.0 °F 57.0 °F 78% 29.80 in 7.0 mi SE 16.1 mph - 0.02 in   Overcast
5:53 PM 71.1 °F 55.9 °F 59% 29.78 in 10.0 mi SSE 13.8 mph - 0.02 in   Clear
6:53 PM 73.0 °F 52.0 °F 48% 29.77 in 10.0 mi South 12.7 mph - N/A   Clear
7:53 PM 72.0 °F 52.0 °F 49% 29.78 in 10.0 mi SSW 12.7 mph - N/A   Partly Cloudy
8:53 PM 68.0 °F 54.0 °F 61% 29.81 in 10.0 mi SSW 12.7 mph - N/A   Partly Cloudy
9:53 PM 69.1 °F 51.1 °F 53% 29.83 in 10.0 mi SW 18.4 mph 25.3 mph N/A   Overcast
11:53 PM 64.9 °F 48.0 °F 54% 29.87 in 10.0 mi SSW 13.8 mph 23.0 mph N/A   Overcast